Weather observations for the past three days for
Schenectady Airport
| Date | Time (edt) | Wind (mph) | Vis. (mi.) | Weather | Sky Cond. | Temperature (ºF) | Relative Humidity | Wind Chill (°F) | Heat Index (°F) | Pressure | Precipitation (in) | ||||||
|---|---|---|---|---|---|---|---|---|---|---|---|---|---|---|---|---|---|
| Air | Dwpt | 6 hour | altimeter (in) | sea level (mb) | 1 hr | 3 hr | 6 hr | ||||||||||
| Max. | Min. | ||||||||||||||||
| 04 | 10:45 | W 12 | 10.00 | Fair | CLR | 75.2 | 62.6 | 65% | 77 | 29.91 | 0.0 | ||||||
| 04 | 09:53 | W 10 G 16 | 10.00 | Fair | CLR | 73.4 | 62.6 | 69% | 29.9 | 0.0 | |||||||
| 04 | 08:45 | NW 12 | 10.00 | Fair | CLR | 69.8 | 62.6 | 78% | 29.9 | 0.0 | |||||||
| 04 | 07:45 | W 12 | 10.00 | Mostly Cloudy | BKN048 | 66.2 | 62.6 | 88% | 29.9 | 0.0 | |||||||
| 03 | 21:45 | Calm | 10.00 | Fair | CLR | 69.8 | 64.4 | 83% | 29.91 | 0.0 | |||||||
| 03 | 20:55 | Calm | 10.00 | Fair | CLR | 71.6 | 64.4 | 78% | 29.91 | 0.0 | |||||||
| 03 | 18:53 | Vrbl 3 | 10.00 | Fair | CLR | 78.8 | 62.6 | 58% | 80 | 29.89 | 0.0 | ||||||
| 03 | 17:47 | W 8 | 10.00 | Fair | CLR | 82.4 | 62.6 | 51% | 83 | 29.88 | 0.0 | ||||||
| 03 | 16:45 | W 12 G 17 | 10.00 | Fair | CLR | 82.4 | 62.6 | 51% | 83 | 29.89 | 0.0 | ||||||
| 03 | 15:45 | W 12 | 10.00 | Fair | CLR | 82.4 | 66.2 | 58% | 85 | 29.9 | 0.0 | ||||||
| 03 | 13:45 | SW 3 | 10.00 | Overcast | BKN021 BKN027 OVC046 | 80.6 | 68 | 66% | 83 | 29.91 | 0.0 | ||||||
| 03 | 12:45 | S 3 | 10.00 | Overcast | OVC023 | 75.2 | 69.8 | 83% | 75 | 29.92 | 0.0 | ||||||
| 03 | 10:48 | Calm | 10.00 | Overcast | SCT010 OVC027 | 73.4 | 68 | 83% | 29.94 | 0.0 | |||||||
| 03 | 09:53 | Calm | 10.00 | Overcast | SCT006 BKN023 OVC040 | 71.6 | 68 | 88% | 29.94 | 0.0 | |||||||
| 03 | 08:50 | S 5 | 10.00 | Overcast | OVC006 | 68 | 66.2 | 94% | 29.95 | 0.0 | |||||||
| 03 | 07:45 | Calm | 10.00 | Overcast | OVC004 | 66.2 | 66.2 | 100% | 29.95 | 0.0 | |||||||
| 02 | 21:57 | S 12 G 20 | 10.00 | Overcast | OVC030 | 66.2 | 60.8 | 83% | 30.04 | 0.0 | |||||||
| 02 | 19:55 | S 9 G 17 | 10.00 | Overcast | OVC030 | 68 | 60.8 | 78% | 30.03 | 0.0 | |||||||
| 02 | 18:59 | S 6 | 10.00 | Overcast | SCT013 OVC018 | 68 | 60.8 | 78% | 30.06 | 0.0 | |||||||
| 02 | 14:45 | S 6 | 10.00 | Mostly Cloudy | BKN022 BKN120 | 71.6 | 60.8 | 69% | 30.11 | 0.0 | |||||||
| 02 | 13:47 | S 8 | 10.00 | Overcast | OVC024 | 66.2 | 59 | 78% | 30.12 | 0.0 | |||||||
| 02 | 12:47 | S 6 | 10.00 | Overcast | OVC022 | 68 | 59 | 73% | 30.13 | 0.0 | |||||||
| 02 | 11:46 | S 8 | 10.00 | Overcast | OVC020 | 68 | 59 | 73% | 30.14 | 0.0 | |||||||
| 02 | 10:46 | S 5 | 10.00 | Overcast | OVC020 | 66.2 | 57.2 | 73% | 30.14 | 0.0 | |||||||
| 02 | 09:46 | S 8 | 10.00 | Overcast | OVC020 | 66.2 | 59 | 78% | 30.14 | 0.0 | |||||||
| 02 | 08:46 | S 7 | 10.00 | Overcast | SCT013 OVC018 | 64.4 | 62.6 | 94% | 30.13 | 0.0 | |||||||
| 02 | 07:45 | S 5 | 10.00 | Overcast | OVC015 | 64.4 | 62.6 | 94% | 30.13 | 0.0 | |||||||
| 01 | 21:59 | S 3 | 2.50 | Light Drizzle | SCT006 BKN014 OVC019 | 66.2 | 66.2 | 100% | 30.06 | 0.0 | |||||||
| 01 | 19:50 | Calm | 10.00 | Overcast | OVC018 | 69.8 | 68 | 94% | 30.02 | 0.0 | |||||||
| 01 | 16:54 | N 6 | 10.00 | Overcast | OVC020 | 71.6 | 68 | 88% | 30.01 | 0.0 | |||||||
| 01 | 14:45 | NE 9 | 10.00 | Overcast | OVC011 | 69.8 | 69.8 | 100% | 30 | 0.0 | |||||||
| 01 | 13:45 | NE 6 | 5.00 | Overcast | OVC007 | 69.8 | 69.8 | 100% | 30 | 0.0 | |||||||
| 01 | 11:46 | Calm | 5.00 | Overcast | BKN005 OVC011 | 69.8 | 69.8 | 100% | 30 | 0.0 | |||||||
| Date | Time (edt) | Wind (mph) | Vis. (mi.) | Weather | Sky Cond. | Air | Dwpt | Max. | Min. | Relative Humidity | Wind Chill (°F) | Heat Index (°F) | altimeter (in) | sea level (mb) | 1 hr | 3 hr | 6 hr |
| 6 hour | |||||||||||||||||
| Temperature (ºF) | Pressure | Precipitation (in) | |||||||||||||||